[[{"header":{"parameterUnit":"m.s-1","parameterCategory":1,"la1":30.2991,"la2":30.254,"lo1":-89.0895,"lo2":-89.0444,"dy":0.0017,"dx":0.0017,"nx":28,"ny":28,"refTime":"2025-01-03T09:00:00:Z","depth":0,"parameterNumber":2,"parameterNumberName":"U-component_of_WINDS"},"data":[0,0,0,0,0,0,0,0,0,0,0,0,0,0,0,0,0,0,0,0,0,0,0,0,0,0,0,0,0,0,0,0,0,0,0,0,0,0,0,0,0,0,0,0,0,0,0,0,0,0,0,0,0,0,0,0,0,0,-0.9284,-0.9284,0,-0.9263,-0.9263,-0.9263,-0.9249,-0.9248,-0.9248,-0.9248,-0.9229,-0.9229,-0.9229,0,0,0,0,0,0,0,0,0,0,0,0,0,-0.9313,-0.9312,-0.9284,-0.9284,-0.9283,-0.9263,-0.9263,-0.9263,-0.9249,-0.9248,-0.9248,-0.9248,-0.923,-0.9229,-0.9229,0,0,0,0,0,0,0,0,0,0,0,0,0,-0.9297,-0.9312,-0.9284,-0.9274,-0.9273,-0.9263,-0.9263,-0.9262,-0.9249,-0.9248,-0.9248,-0.9248,-0.923,-0.9229,-0.9228,-0.9228,0,0,-0.9227,-0.9226,0,0,0,0,0,0,0,0,-0.9298,-0.9296,-0.9276,-0.9274,-0.9273,-0.9258,-0.9266,-0.9251,-0.9249,-0.9258,-0.9248,-0.9248,-0.9239,-0.9238,-0.9234,-0.9227,-0.9226,-0.9227,-0.9226,-0.9226,-0.9226,0,0,0,0,0,0,0,-0.9299,-0.9297,-0.9276,-0.9275,-0.9274,-0.9271,-0.9268,-0.9263,-0.925,-0.9257,-0.9256,-0.9254,-0.9239,-0.9235,-0.9234,-0.9226,-0.9227,-0.9226,-0.9226,-0.9225,-0.9216,-0.9216,0,0,0,0,0,0,-0.9301,-0.9298,-0.9276,-0.9275,-0.9285,-0.927,-0.9268,-0.9263,-0.925,-0.9248,-0.9254,-0.9253,-0.9236,-0.9235,-0.9233,-0.9231,-0.9226,-0.9225,-0.9225,-0.9216,-0.9216,-0.9216,0,0,0,0,0,0,-0.9302,-0.93,-0.9277,-0.9286,-0.9283,-0.927,-0.9265,-0.9263,-0.9259,-0.9247,-0.9245,-0.9252,-0.9236,-0.9234,-0.9229,-0.923,-0.9225,-0.9225,-0.9216,-0.9216,-0.9216,-0.9227,0,0,0,0,0,0,-0.9303,-0.93,-0.9299,-0.9286,-0.9283,-0.9273,-0.9265,-0.9263,-0.9258,-0.9257,-0.9245,-0.9243,-0.9236,-0.923,-0.9228,-0.9229,-0.9224,-0.9216,-0.9216,-0.9216,-0.9226,-0.9227,-0.9228,0,0,0,0,0,-0.9304,-0.9304,-0.9299,-0.9297,-0.9281,-0.9273,-0.9271,-0.9261,-0.9258,-0.9257,-0.925,-0.9244,-0.923,-0.9229,-0.9228,-0.9228,-0.9215,-0.9216,-0.9216,-0.9226,-0.9227,-0.9228,0,0,0,0,0,0,-0.9319,-0.9302,-0.9297,-0.9292,-0.9284,-0.9271,-0.927,-0.9263,-0.9256,-0.9256,-0.9245,-0.9242,-0.9238,-0.9233,-0.9232,-0.9226,-0.9222,-0.9222,-0.923,-0.9231,-0.9232,-0.9233,-0.9224,0,0,0,0,0,-0.9321,-0.9315,-0.9301,-0.9299,-0.9295,-0.9283,-0.9279,-0.9272,-0.9263,-0.926,-0.9252,-0.9244,-0.9238,-0.9234,-0.9228,-0.9225,-0.9222,-0.9225,-0.9226,-0.9226,-0.9226,-0.9224,-0.9224,-0.9217,-0.9217,-0.9217,0,0,-0.9327,-0.9317,-0.9314,-0.9301,-0.9294,-0.9288,-0.928,-0.9275,-0.927,-0.9259,-0.9254,-0.9247,-0.9238,-0.9234,-0.9232,-0.9229,-0.9228,-0.9227,-0.9227,-0.9227,-0.9224,-0.9225,-0.9225,-0.9217,-0.9217,-0.9217,0,0,-0.9334,-0.9326,-0.9322,-0.9315,-0.9303,-0.9295,-0.9295,-0.9282,-0.9277,-0.9271,-0.9262,-0.9257,-0.9247,-0.924,-0.9236,-0.9239,-0.9233,-0.9237,-0.9242,-0.924,-0.924,-0.9241,-0.9241,-0.9242,-0.9237,-0.9237,-0.9237,0,-0.9343,-0.9333,-0.9322,-0.9316,-0.931,-0.9299,-0.9295,-0.9289,-0.9277,-0.9273,-0.927,-0.9257,-0.925,-0.9243,-0.9244,-0.9241,-0.9239,-0.9238,-0.9241,-0.9241,-0.9241,-0.9242,-0.9242,-0.9238,-0.9238,-0.9238,-0.9238,0,-0.9344,-0.9337,-0.9336,-0.9322,-0.9317,-0.9312,-0.93,-0.9296,-0.9289,-0.9282,-0.9275,-0.9266,-0.9258,-0.9256,-0.925,-0.9248,-0.9247,-0.9243,-0.9238,-0.9243,-0.9243,-0.9243,-0.9239,-0.9238,-0.9238,-0.9238,0,0,-0.936,-0.934,-0.9339,-0.9333,-0.9319,-0.9314,-0.9308,-0.9299,-0.9295,-0.9287,-0.9282,-0.9273,-0.9269,-0.9263,-0.9257,-0.9254,-0.9257,-0.925,-0.925,-0.9251,-0.9254,-0.9257,-0.9257,-0.9253,-0.9253,-0.9253,-0.9254,0,-0.9365,-0.9354,-0.9343,-0.9336,-0.9329,-0.9318,-0.9313,-0.9305,-0.9297,-0.9291,-0.9283,-0.9276,-0.9271,-0.9268,-0.9265,-0.9257,-0.9257,-0.9257,-0.9248,-0.9248,-0.9251,-0.9257,-0.9261,-0.9263,-0.9254,-0.9254,-0.9254,0,-0.9369,-0.9359,-0.9352,-0.9337,-0.9334,-0.933,-0.932,-0.9314,-0.9303,-0.9298,-0.9291,-0.9284,-0.9278,-0.9274,-0.9266,-0.9266,-0.9262,-0.9257,-0.9257,-0.9256,-0.9252,-0.9256,-0.9263,-0.9264,-0.9255,-0.9255,-0.9255,0,-0.9381,-0.9367,-0.9359,-0.9354,-0.9337,-0.9335,-0.9328,-0.9317,-0.9312,-0.9303,-0.9299,-0.9291,-0.9286,-0.9279,-0.927,-0.9268,-0.9262,-0.9258,-0.9258,-0.9258,-0.9257,-0.9257,-0.9264,-0.9255,-0.9255,-0.9255,-0.9255,0,-0.9387,-0.9383,-0.9364,-0.936,-0.9355,-0.9342,-0.9337,-0.933,-0.932,-0.9314,-0.9304,-0.9299,-0.9287,-0.928,-0.9273,-0.9267,-0.9265,-0.9261,-0.9259,-0.9261,-0.9262,-0.9259,-0.9258,-0.9255,-0.9255,-0.9255,-0.9255,0,-0.94,-0.9387,-0.9379,-0.9363,-0.9359,-0.9355,-0.9342,-0.9338,-0.9329,-0.9322,-0.932,-0.9307,-0.9298,-0.9288,-0.9277,-0.9272,-0.9267,-0.9264,-0.927,-0.9268,-0.9269,-0.9269,-0.9273,-0.9273,-0.9265,-0.9265,-0.9265,0,-0.9404,-0.94,-0.9383,-0.9378,-0.9371,-0.9363,-0.9357,-0.9344,-0.9339,-0.9326,-0.9323,-0.9314,-0.9306,-0.9293,-0.9283,-0.9274,-0.9271,-0.9273,-0.927,-0.9272,-0.9271,-0.9271,-0.927,-0.9274,-0.9274,-0.9274,-0.9274,0,-0.9414,-0.9407,-0.9398,-0.9387,-0.9379,-0.937,-0.9361,-0.9357,-0.9343,-0.9337,-0.9328,-0.9321,-0.9309,-0.93,-0.929,-0.9283,-0.9277,-0.9275,-0.9275,-0.9278,-0.9281,-0.9279,-0.9272,-0.9276,-0.9275,-0.9275,-0.9275,-0.9275,-0.9422,-0.9417,-0.9404,-0.9394,-0.9385,-0.9376,-0.9371,-0.9361,-0.9353,-0.9341,-0.9335,-0.9326,-0.9315,-0.93,-0.9294,-0.9287,-0.9284,-0.9284,-0.9283,-0.9283,-0.9284,-0.9282,-0.9285,-0.9285,-0.9285,-0.9285,-0.9285,0,-0.943,-0.9421,-0.9412,-0.9398,-0.939,-0.9383,-0.9372,-0.9366,-0.9358,-0.9347,-0.9339,-0.9328,-0.9319,-0.9308,-0.9298,-0.9295,-0.9291,-0.9293,-0.9293,-0.9291,-0.9287,-0.9288,-0.9296,-0.9296,-0.9296,-0.9296,-0.9296,-0.9296,-0.9434,-0.9425,-0.9417,-0.9404,-0.9395,-0.9385,-0.9379,-0.9371,-0.9362,-0.935,-0.9342,-0.9334,-0.9324,-0.9313,-0.9304,-0.9301,-0.9298,-0.93,-0.9296,-0.9293,-0.9292,-0.9291,-0.9292,-0.93,-0.93,-0.9301,-0.9301,-0.9301]},{"header":{"parameterUnit":"m.s-1","parameterCategory":1,"la1":30.2991,"la2":30.254,"lo1":-89.0895,"lo2":-89.0444,"dy":0.0017,"dx":0.0017,"nx":28,"ny":28,"refTime":"2025-01-03T09:00:00:Z","depth":0,"parameterNumber":3,"parameterNumberName":"V-component_of_WINDS"},"data":[0,0,0,0,0,0,0,0,0,0,0,0,0,0,0,0,0,0,0,0,0,0,0,0,0,0,0,0,0,0,0,0,0,0,0,0,0,0,0,0,0,0,0,0,0,0,0,0,0,0,0,0,0,0,0,0,0,0,5.1621,5.1622,0,5.1689,5.169,5.1691,5.166,5.1659,5.1657,5.1655,5.1722,5.1725,5.1729,0,0,0,0,0,0,0,0,0,0,0,0,0,5.1462,5.1465,5.1621,5.1622,5.1622,5.1689,5.169,5.1691,5.1661,5.1659,5.1657,5.1655,5.1721,5.1725,5.1729,0,0,0,0,0,0,0,0,0,0,0,0,0,5.153,5.1466,5.1621,5.1615,5.1616,5.1689,5.169,5.1691,5.1661,5.1659,5.1656,5.1654,5.172,5.1725,5.173,5.1811,0,0,5.1745,5.1747,0,0,0,0,0,0,0,0,5.1527,5.1536,5.1615,5.1616,5.1616,5.1664,5.1659,5.1731,5.1662,5.1644,5.1655,5.1652,5.1705,5.1711,5.1729,5.1814,5.1817,5.1745,5.1748,5.1751,5.1752,0,0,0,0,0,0,0,5.1522,5.1533,5.1648,5.1616,5.1617,5.1609,5.1616,5.1672,5.1687,5.1645,5.1643,5.1652,5.1704,5.1724,5.173,5.1818,5.1745,5.175,5.1753,5.1755,5.1977,5.198,0,0,0,0,0,0,5.1518,5.1529,5.1646,5.165,5.1564,5.1614,5.1622,5.1651,5.1687,5.169,5.1654,5.165,5.1717,5.1724,5.1733,5.1833,5.1751,5.1755,5.1758,5.1974,5.1978,5.1981,0,0,0,0,0,0,5.1514,5.1528,5.1643,5.1589,5.1603,5.162,5.1653,5.1654,5.1674,5.1693,5.1696,5.1672,5.1715,5.1725,5.1793,5.1835,5.1758,5.1762,5.1971,5.1975,5.1979,5.2032,0,0,0,0,0,0,5.151,5.1527,5.1558,5.159,5.1606,5.1702,5.1655,5.1657,5.1683,5.1679,5.1711,5.1713,5.1714,5.1786,5.1798,5.184,5.1766,5.1967,5.1973,5.1978,5.2027,5.2038,5.2047,0,0,0,0,0,5.1504,5.1569,5.156,5.1574,5.1646,5.1705,5.1714,5.1714,5.1686,5.1718,5.1731,5.1712,5.1828,5.1793,5.1806,5.1851,5.1964,5.1971,5.1977,5.2022,5.2036,5.2047,0,0,0,0,0,0,5.154,5.1573,5.1563,5.1641,5.1671,5.17,5.1739,5.1728,5.1765,5.1759,5.1757,5.1765,5.1835,5.1849,5.1809,5.1933,5.1892,5.1901,5.1921,5.1934,5.1944,5.194,5.177,0,0,0,0,0,5.1557,5.1603,5.1629,5.1695,5.171,5.1723,5.1748,5.1746,5.1776,5.1788,5.1806,5.1836,5.1879,5.1907,5.1947,5.2029,5.2037,5.2066,5.2076,5.2085,5.2093,5.214,5.2155,5.2002,5.2002,5.2002,0,0,5.1592,5.1616,5.1645,5.1703,5.1725,5.1773,5.1733,5.1784,5.182,5.1796,5.1862,5.1876,5.1908,5.1984,5.2018,5.1998,5.2137,5.2093,5.21,5.2104,5.2149,5.2163,5.2176,5.2006,5.2006,5.2005,0,0,5.1681,5.1703,5.1762,5.1787,5.1823,5.1831,5.1845,5.1877,5.1886,5.1952,5.1936,5.1978,5.2051,5.2077,5.2099,5.2201,5.2186,5.2214,5.2268,5.2314,5.2326,5.2337,5.2376,5.2389,5.2222,5.2223,5.2223,0,5.172,5.1792,5.1793,5.1848,5.1874,5.1856,5.1917,5.194,5.1986,5.2005,5.1982,5.2077,5.2097,5.218,5.2205,5.2223,5.224,5.2211,5.2324,5.2335,5.2345,5.2382,5.2397,5.2226,5.2226,5.2225,5.2225,0,5.184,5.189,5.1933,5.1982,5.2013,5.207,5.2079,5.2111,5.2107,5.2118,5.2187,5.2211,5.2258,5.2277,5.2272,5.236,5.2347,5.2324,5.2283,5.2363,5.2398,5.2412,5.2231,5.223,5.2229,5.2228,0,0,5.1952,5.2003,5.2019,5.2042,5.2082,5.2121,5.2177,5.2225,5.2253,5.2286,5.2334,5.2399,5.2379,5.2405,5.2403,5.2443,5.2526,5.2416,5.2417,5.2437,5.2627,5.2646,5.2662,5.2516,5.2519,5.2521,5.2625,0,5.2046,5.2147,5.2151,5.2242,5.229,5.2276,5.2325,5.2355,5.2367,5.2409,5.2422,5.2469,5.2438,5.2454,5.2493,5.2508,5.2564,5.25,5.2562,5.2564,5.2556,5.268,5.2699,5.2796,5.2639,5.2641,5.2643,0,5.2169,5.2209,5.2307,5.2343,5.2363,5.2408,5.2453,5.2494,5.2528,5.2534,5.2564,5.2557,5.2616,5.2572,5.2654,5.261,5.2636,5.2647,5.2651,5.2658,5.2609,5.2692,5.2827,5.2842,5.2664,5.2662,5.2661,0,5.2244,5.2323,5.2392,5.2412,5.2455,5.2487,5.2506,5.2538,5.2568,5.2607,5.2627,5.2671,5.2697,5.2732,5.2738,5.2705,5.2821,5.2777,5.2828,5.2829,5.2854,5.2853,5.2997,5.2868,5.2867,5.2867,5.2867,0,5.235,5.2411,5.2427,5.247,5.2538,5.2542,5.2609,5.2626,5.2655,5.2701,5.2689,5.2733,5.2737,5.2782,5.2787,5.2856,5.2866,5.2873,5.2874,5.2876,5.2875,5.2893,5.2888,5.2871,5.287,5.2869,5.2869,0,5.2446,5.2459,5.2534,5.257,5.2581,5.263,5.266,5.2701,5.2713,5.2772,5.2786,5.2804,5.2857,5.2866,5.2927,5.2931,5.3013,5.3006,5.3003,5.3002,5.3054,5.305,5.3217,5.324,5.3093,5.3095,5.3096,0,5.2513,5.256,5.2602,5.2633,5.2655,5.2704,5.2736,5.2741,5.2774,5.2818,5.2855,5.2907,5.2949,5.3033,5.3052,5.31,5.3095,5.315,5.3102,5.3103,5.3099,5.3097,5.3103,5.316,5.3161,5.3162,5.3163,0,5.2632,5.2638,5.2683,5.2733,5.2771,5.2809,5.2845,5.2871,5.2882,5.2919,5.2974,5.3007,5.3071,5.3124,5.3172,5.3191,5.318,5.3179,5.3194,5.3196,5.3193,5.3198,5.303,5.3175,5.3174,5.3173,5.3172,5.3172,5.2718,5.276,5.2798,5.285,5.2878,5.2914,5.2955,5.2974,5.302,5.3074,5.3074,5.3135,5.317,5.3234,5.3257,5.3305,5.3287,5.3308,5.3314,5.3319,5.3326,5.3185,5.3313,5.3313,5.3312,5.3312,5.3312,0,5.2839,5.2863,5.2911,5.2964,5.3005,5.2993,5.3033,5.3068,5.3123,5.3157,5.32,5.3264,5.3316,5.3339,5.339,5.3424,5.3421,5.3438,5.3436,5.3442,5.3337,5.332,5.344,5.344,5.344,5.344,5.344,5.344,5.2907,5.2979,5.2989,5.3076,5.3099,5.316,5.3184,5.3217,5.3245,5.3319,5.3362,5.3378,5.3409,5.3462,5.3509,5.3515,5.3535,5.3555,5.3559,5.3461,5.3448,5.3436,5.342,5.3559,5.3559,5.366,5.3661,5.3661]}]]